This demonstration page uses our WeatherBlox Daily Observations layout. Learn more.

Left ArrowRight Arrow

39.92423, -83.80882

Hourly Observations for September 27, 2015

Temp ( °F °C ) Dew Point ( °F °C ) Humidity (%) Winds ( mph kmh ) Pressure ( in mb ) Visibility ( mi km ) Precip ( " mm )
12:56 am 00:56 Mostly Cloudy 63 17.2 61 16.1 93 93 E 9 15 30.22 1023 10 16.0934 0 0
1:56 am 01:56 Mostly Cloudy 62 16.6 58 14.4 87 87 E 9 15 30.21 1023 10 16.0934 0 0
2:56 am 02:56 Cloudy 62 16.6 55 12.7 78 78 E 8 13 30.2 1023 10 16.0934 0 0
3:56 am 03:56 Mostly Cloudy 62 16.6 54 12.2 75 75 E 12 19 30.19 1022 10 16.0934 0 0
4:56 am 04:56 Mostly Cloudy 62 16.6 53 11.6 73 73 ESE 12 19 30.19 1022 10 16.0934 0 0
5:56 am 05:56 Cloudy 62 16.6 54 12.2 75 75 ESE 13 20 30.19 1022 10 16.0934 0 0
6:56 am 06:56 Mostly Cloudy 62 16.6 54 12.2 75 75 ESE 10 17 30.19 1022 10 16.0934 0 0
7:56 am 07:56 Mostly Cloudy 61 16.1 54 12.2 78 78 ESE 9 15 30.2 1023 10 16.0934 0 0
8:56 am 08:56 Cloudy 63 17.2 55 12.7 75 75 ESE 12 19 30.22 1023 10 16.0934 0 0
9:56 am 09:56 Partly Cloudy 67 19.4 57 13.8 70 70 ESE 15 24 30.22 1023 10 16.0934 0 0
10:56 am 10:56 Mostly Cloudy 70 21.1 57 13.8 63 63 SE 14 22 30.22 1023 10 16.0934 0 0
11:56 am 11:56 Partly Cloudy 71 21.6 58 14.4 64 64 SSE 12 19 30.2 1023 10 16.0934 0 0
12:56 pm 12:56 Partly Cloudy 75 23.8 60 15.5 60 60 SSE 10 17 30.19 1022 10 16.0934 0 0
1:56 pm 13:56 Mostly Sunny 78 25.5 61 16.1 56 56 SE 10 17 30.15 1021 10 16.0934 0 0
2:56 pm 14:56 Cloudy 78 25.5 61 16.1 56 56 SE 10 17 30.13 1020 10 16.0934 0 0
3:56 pm 15:56 Cloudy 79 26.1 61 16.1 54 54 SSE 9 15 30.11 1020 10 16.0934 0 0
4:56 pm 16:56 Cloudy 76 24.4 62 16.6 62 62 SE 15 24 30.11 1020 10 16.0934 0 0
5:56 pm 17:56 Mostly Sunny 76 24.4 63 17.2 64 64 SE 14 22 30.11 1020 10 16.0934 0 0
6:56 pm 18:56 Mostly Cloudy 73 22.7 64 17.7 73 73 SE 10 17 30.11 1020 10 16.0934 0 0
7:56 pm 19:56 Cloudy 70 21.1 63 17.2 79 79 SE 9 15 30.13 1020 10 16.0934 0 0
8:56 pm 20:56 Cloudy 69 20.5 63 17.2 81 81 SE 7 11 30.13 1020 10 16.0934 0 0
9:56 pm 21:56 Partly Cloudy 69 20.5 63 17.2 81 81 SE 8 13 30.13 1020 10 16.0934 0 0
10:56 pm 22:56 Clear 67 19.4 63 17.2 87 87 ESE 8 13 30.13 1020 10 16.0934 0 0
11:56 pm 23:56 Clear 66 18.8 63 17.2 90 90 ESE 8 13 30.13 1020 10 16.0934 0 0

Powered by AerisWeather